When you browse on this site, cookies collect data to enhance your experience and personalize the content and advertising you see.
Visit our Privacy Policy to learn more. By continuing to use the site, you agree to this use of cookies and data.
  • In Sweden
  • List of Countries
  • For 7 days
  • Water Temperature
  • Satellite Maps
  • Weather Map
  • Weather Widgets
  • user-avatar
    Login

    Hourly Weather Bishkul

    Today, 22 April, Monday

    Time Temperature Precipitation Wind Pressure Humidity
    00:00 +5°C° 0 mm 2 mps 756 mmHg 55%
    01:00 +4°C° 0 mm 2 mps 756 mmHg 56%
    02:00 +4°C° 0 mm 2 mps 756 mmHg 57%
    03:00 +4°C° 0 mm 2 mps 756 mmHg 58%
    04:00 +4°C° 0 mm 2 mps 756 mmHg 59%
    05:00 +4°C° 0 mm 2 mps 756 mmHg 60%
    06:00 +5°C° 0 mm 2 mps 756 mmHg 58%
    07:00 +5°C° 0 mm 3 mps 756 mmHg 56%
    08:00 +5°C° 0 mm 3 mps 757 mmHg 55%
    09:00 +7°C° 0.1 mm 3 mps 756 mmHg 50%
    10:00 +9°C° 0.1 mm 3 mps 756 mmHg 45%
    11:00 +10°C° 0.1 mm 3 mps 756 mmHg 40%
    12:00 +10°C° 0 mm 3 mps 756 mmHg 39%
    13:00 +10°C° 0 mm 3 mps 756 mmHg 37%
    14:00 +11°C° 0 mm 3 mps 756 mmHg 36%
    15:00 +10°C° 0 mm 3 mps 755 mmHg 36%
    16:00 +10°C° 0 mm 3 mps 755 mmHg 36%
    17:00 +10°C° 0 mm 3 mps 755 mmHg 36%
    18:00 +10°C° 0 mm 2 mps 755 mmHg 39%
    19:00 +9°C° 0 mm 2 mps 755 mmHg 42%
    20:00 +8°C° 0 mm 2 mps 755 mmHg 45%
    21:00 +7°C° 0 mm 2 mps 755 mmHg 48%
    22:00 +7°C° 0 mm 2 mps 755 mmHg 51%
    23:00 +6°C° 0 mm 2 mps 754 mmHg 54%

    Tomorrow, 23 April, Tuesday

    Time Temperature Precipitation Wind Pressure Humidity
    00:00 +5°C° 0 mm 2 mps 754 mmHg 55%
    01:00 +5°C° 0 mm 2 mps 754 mmHg 57%
    02:00 +4°C° 0 mm 2 mps 754 mmHg 59%
    03:00 +4°C° 0 mm 2 mps 753 mmHg 60%
    04:00 +3°C° 0 mm 3 mps 753 mmHg 61%
    05:00 +2°C° 0 mm 3 mps 753 mmHg 63%
    06:00 +4°C° 0 mm 3 mps 752 mmHg 59%
    07:00 +5°C° 0 mm 4 mps 752 mmHg 56%
    08:00 +6°C° 0 mm 4 mps 752 mmHg 52%
    09:00 +8°C° 0 mm 4 mps 752 mmHg 50%
    10:00 +9°C° 0 mm 5 mps 751 mmHg 48%
    11:00 +10°C° 0 mm 5 mps 751 mmHg 47%
    12:00 +10°C° 0.1 mm 5 mps 750 mmHg 51%
    13:00 +10°C° 0.1 mm 5 mps 750 mmHg 55%
    14:00 +10°C° 0.1 mm 5 mps 750 mmHg 59%
    15:00 +12°C° 0.1 mm 5 mps 749 mmHg 58%
    16:00 +12°C° 0.1 mm 5 mps 749 mmHg 57%
    17:00 +13°C° 0.1 mm 4 mps 749 mmHg 56%
    18:00 +12°C° 0 mm 4 mps 749 mmHg 58%
    19:00 +11°C° 0 mm 3 mps 749 mmHg 61%
    20:00 +10°C° 0 mm 3 mps 749 mmHg 64%
    21:00 +10°C° 0 mm 3 mps 749 mmHg 66%
    22:00 +9°C° 0 mm 3 mps 749 mmHg 68%
    23:00 +8°C° 0 mm 4 mps 749 mmHg 70%

    Day after tomorrow, 24 April, Wednesday

    Time Temperature Precipitation Wind Pressure Humidity
    00:00 +8°C° 0 mm 3 mps 749 mmHg 73%
    01:00 +7°C° 0 mm 3 mps 749 mmHg 76%
    02:00 +7°C° 0 mm 3 mps 748 mmHg 79%
    03:00 +5°C° 0 mm 3 mps 749 mmHg 80%
    04:00 +5°C° 0 mm 3 mps 749 mmHg 82%
    05:00 +4°C° 0 mm 3 mps 749 mmHg 84%
    06:00 +5°C° 0 mm 3 mps 749 mmHg 81%
    07:00 +7°C° 0 mm 2 mps 749 mmHg 79%
    08:00 +8°C° 0 mm 2 mps 749 mmHg 76%
    09:00 +9°C° 0 mm 2 mps 749 mmHg 70%
    10:00 +10°C° 0 mm 2 mps 749 mmHg 64%
    11:00 +12°C° 0 mm 2 mps 749 mmHg 59%
    12:00 +13°C° 0.3 mm 2 mps 749 mmHg 56%
    13:00 +13°C° 0.3 mm 2 mps 748 mmHg 53%
    14:00 +13°C° 0.3 mm 2 mps 748 mmHg 50%
    15:00 +13°C° 0.3 mm 1 mps 748 mmHg 51%
    16:00 +13°C° 0.3 mm 1 mps 748 mmHg 52%
    17:00 +12°C° 0.3 mm 0 mps 747 mmHg 53%
    18:00 +11°C° 0.2 mm 0 mps 747 mmHg 58%
    19:00 +11°C° 0.2 mm 1 mps 747 mmHg 63%
    20:00 +11°C° 0.2 mm 1 mps 747 mmHg 68%
    21:00 +10°C° 0.1 mm 1 mps 747 mmHg 72%
    22:00 +9°C° 0.1 mm 1 mps 747 mmHg 75%
    23:00 +8°C° 0.1 mm 0 mps 746 mmHg 78%

    25 April, Thursday

    Time Temperature Precipitation Wind Pressure Humidity
    00:00 +9°C° 0.2 mm 1 mps 746 mmHg 78%
    01:00 +7°C° 0.2 mm 2 mps 746 mmHg 78%
    02:00 +7°C° 0.2 mm 2 mps 746 mmHg 79%
    03:00 +5°C° 1.2 mm 3 mps 745 mmHg 80%
    04:00 +5°C° 1.2 mm 3 mps 745 mmHg 81%
    05:00 +4°C° 1.2 mm 4 mps 745 mmHg 81%
    06:00 +5°C° 0.2 mm 4 mps 746 mmHg 77%
    07:00 +6°C° 0.2 mm 4 mps 746 mmHg 73%
    08:00 +6°C° 0.2 mm 5 mps 746 mmHg 68%
    09:00 +7°C° 0 mm 5 mps 746 mmHg 62%
    10:00 +8°C° 0 mm 5 mps 746 mmHg 55%
    11:00 +9°C° 0 mm 5 mps 746 mmHg 48%
    12:00 +10°C° 0.1 mm 4 mps 746 mmHg 48%
    13:00 +11°C° 0.1 mm 4 mps 746 mmHg 47%
    14:00 +11°C° 0.1 mm 4 mps 746 mmHg 47%
    15:00 +10°C° 0.2 mm 4 mps 746 mmHg 51%
    16:00 +9°C° 0.2 mm 3 mps 746 mmHg 56%
    17:00 +9°C° 0.2 mm 3 mps 746 mmHg 60%
    18:00 +7°C° 1.2 mm 4 mps 747 mmHg 64%
    19:00 +6°C° 1.2 mm 5 mps 747 mmHg 68%
    20:00 +4°C° 1.2 mm 7 mps 747 mmHg 72%
    21:00 +3°C° 0.5 mm 6 mps 748 mmHg 69%
    22:00 +3°C° 0.5 mm 6 mps 748 mmHg 66%
    23:00 +2°C° 0.5 mm 6 mps 749 mmHg 63%

    26 April, Friday

    Time Temperature Precipitation Wind Pressure Humidity
    00:00 +1°C° 0 mm 5 mps 749 mmHg 62%
    01:00 0°C° 0 mm 5 mps 749 mmHg 61%
    02:00 -1°C° 0 mm 4 mps 749 mmHg 59%
    03:00 -1°C° 0 mm 4 mps 750 mmHg 60%
    04:00 -1°C° 0 mm 3 mps 750 mmHg 60%
    05:00 -2°C° 0 mm 3 mps 751 mmHg 61%
    06:00 -1°C° 0 mm 3 mps 751 mmHg 54%
    07:00 0°C° 0 mm 3 mps 751 mmHg 48%
    08:00 +1°C° 0 mm 3 mps 751 mmHg 41%
    09:00 +3°C° 0 mm 2 mps 751 mmHg 38%
    10:00 +5°C° 0 mm 1 mps 750 mmHg 36%
    11:00 +6°C° 0 mm 1 mps 750 mmHg 33%
    12:00 +6°C° 0 mm 2 mps 750 mmHg 32%
    13:00 +7°C° 0 mm 2 mps 749 mmHg 30%
    14:00 +8°C° 0 mm 3 mps 749 mmHg 28%
    15:00 +8°C° 0.1 mm 3 mps 749 mmHg 33%
    16:00 +8°C° 0.1 mm 3 mps 749 mmHg 37%
    17:00 +7°C° 0.1 mm 3 mps 749 mmHg 41%
    18:00 +5°C° 0.7 mm 4 mps 749 mmHg 53%
    19:00 +4°C° 0.7 mm 4 mps 750 mmHg 64%
    20:00 +3°C° 0.7 mm 4 mps 750 mmHg 75%
    21:00 +1°C° 1 mm 5 mps 750 mmHg 79%
    22:00 0°C° 1 mm 5 mps 751 mmHg 84%
    23:00 -1°C° 1 mm 5 mps 751 mmHg 88%

    27 April, Saturday

    Time Temperature Precipitation Wind Pressure Humidity
    00:00 -1°C° 0 mm 5 mps 751 mmHg 89%
    01:00 -2°C° 0 mm 4 mps 752 mmHg 90%
    02:00 -1°C° 0 mm 3 mps 752 mmHg 92%
    03:00 -1°C° 0 mm 3 mps 752 mmHg 90%
    04:00 -2°C° 0 mm 3 mps 752 mmHg 89%
    05:00 -2°C° 0 mm 3 mps 753 mmHg 88%
    06:00 -1°C° 0 mm 3 mps 753 mmHg 85%
    07:00 -2°C° 0 mm 4 mps 753 mmHg 83%
    08:00 -1°C° 0 mm 4 mps 753 mmHg 81%
    09:00 0°C° 0 mm 4 mps 753 mmHg 77%
    10:00 +1°C° 0 mm 4 mps 753 mmHg 73%
    11:00 +3°C° 0 mm 4 mps 753 mmHg 70%
    12:00 +3°C° 0 mm 5 mps 753 mmHg 61%
    13:00 +4°C° 0 mm 6 mps 752 mmHg 52%
    14:00 +6°C° 0 mm 7 mps 752 mmHg 43%
    15:00 +6°C° 0 mm 7 mps 751 mmHg 40%
    16:00 +6°C° 0 mm 7 mps 751 mmHg 38%
    17:00 +6°C° 0 mm 8 mps 750 mmHg 35%
    18:00 +6°C° 0.1 mm 7 mps 749 mmHg 39%
    19:00 +6°C° 0.1 mm 7 mps 749 mmHg 42%
    20:00 +6°C° 0.1 mm 7 mps 748 mmHg 46%
    21:00 +6°C° 0.1 mm 7 mps 748 mmHg 53%
    22:00 +6°C° 0.1 mm 7 mps 747 mmHg 60%
    23:00 +6°C° 0.1 mm 7 mps 747 mmHg 67%
    Show more